Weather History for Adak, AK

Change the Weather History Date:

Monday, November 19, 2012

  Actual Average Record
Temperature  
Mean Temperature 37 °F -  
Max Temperature 39 °F 41 °F 48 °F (1961)
Min Temperature 35 °F 32 °F 12 °F (2011)
Degree Days  
Heating Degree Days 28    
Moisture  
Dew Point 33 °F    
Average Humidity 84    
Maximum Humidity 93    
Minimum Humidity 75    
Precipitation  
Precipitation 0.00 in - - ()
Sea Level Pressure  
Sea Level Pressure 29.99 in    
Wind  
Wind Speed 12 mph (ESE)    
Max Wind Speed 22 mph    
Max Gust Speed 28 mph    
Visibility 9 miles    
Events      
Averages and records for this station are not official NWS values.
T = Trace of Precipitation, MM = Missing Value Source: NWS Daily Summary

Daily Weather History Graph

Daily Weather History Graph

Search for Another Location

Airport:

Trip Planner

Search our weather history database for the weather conditions in past years. The results will help you decide how hot, cold, wet, or windy it might be!

Date:

Astronomy

Nov. 19, 2012 Rise Set
Actual Time 9:14 AM HAST 5:49 PM HAST
Civil Twilight 8:36 AM HAST 6:27 PM HAST
Nautical Twilight 7:54 AM HAST 7:09 PM HAST
Astronomical Twilight 7:14 AM HAST 7:49 PM HAST
Moon 2:05 PM HAST (11/19) No Moon Set
Length of Visible Light 9h 51m
Length of Day
8h 35m
Waxing Crescent, 43% of the Moon is Illuminated
Nov 19
Waxing Crescent
Nov 20
First Quarter
Nov 28
Full
Dec 6
Last Quarter
Dec 12
New

Hourly Weather History & Observations

Time (HAST) Temp. Windchill Dew Point Humidity Pressure Visibility Wind Dir Wind Speed Gust Speed Precip Events Conditions
12:16 AM 37.4 °F 30.3 °F 30.2 °F 75% 30.23 in 10.0 mi ESE 10.4 mph - N/A   Overcast
12:36 AM 37.4 °F 30.3 °F 30.2 °F 75% 30.23 in 10.0 mi ESE 10.4 mph - N/A   Overcast
12:56 AM 37.4 °F 30.8 °F 30.2 °F 75% 30.21 in 10.0 mi East 9.2 mph - N/A   Scattered Clouds
1:16 AM 37.4 °F 30.8 °F 32.0 °F 81% 30.21 in 10.0 mi East 9.2 mph - N/A   Partly Cloudy
1:36 AM 37.4 °F 32.1 °F 32.0 °F 81% 30.20 in 10.0 mi East 6.9 mph - N/A   Mostly Cloudy
1:56 AM 37.4 °F 29.8 °F 33.8 °F 87% 30.19 in 10.0 mi East 11.5 mph - N/A   Overcast
2:16 AM 37.4 °F 31.4 °F 32.0 °F 81% 30.18 in 10.0 mi East 8.1 mph - N/A   Overcast
2:36 AM 37.4 °F 31.4 °F 30.2 °F 75% 30.18 in 10.0 mi SE 8.1 mph - N/A   Overcast
2:56 AM 37.4 °F 31.4 °F 32.0 °F 81% 30.17 in 10.0 mi SE 8.1 mph - N/A   Overcast
3:16 AM 37.4 °F 30.3 °F 32.0 °F 81% 30.17 in 10.0 mi SE 10.4 mph - N/A   Overcast
3:36 AM 39.2 °F 32.5 °F 32.0 °F 75% 30.16 in 10.0 mi ESE 10.4 mph - N/A   Overcast
3:56 AM 39.2 °F 33.0 °F 33.8 °F 81% 30.15 in 10.0 mi East 9.2 mph - N/A   Overcast
4:16 AM 39.2 °F 32.5 °F 33.8 °F 81% 30.15 in 10.0 mi ESE 10.4 mph - N/A   Overcast
4:36 AM 39.2 °F 32.0 °F 33.8 °F 81% 30.15 in 10.0 mi ESE 11.5 mph - N/A   Overcast
4:56 AM 37.4 °F 30.3 °F 35.6 °F 93% 30.14 in 10.0 mi SE 10.4 mph - N/A   Overcast
5:16 AM 39.2 °F 32.5 °F 33.8 °F 81% 30.13 in 10.0 mi ESE 10.4 mph - N/A   Overcast
5:36 AM 39.2 °F 31.6 °F 33.8 °F 81% 30.12 in 10.0 mi ESE 12.7 mph - N/A   Overcast
5:56 AM 39.2 °F 31.6 °F 33.8 °F 81% 30.11 in 10.0 mi ESE 12.7 mph - N/A   Overcast
6:16 AM 39.2 °F 32.0 °F 35.6 °F 87% 30.11 in 10.0 mi ESE 11.5 mph - N/A   Overcast
6:36 AM 39.2 °F 32.0 °F 33.8 °F 81% 30.10 in 10.0 mi ESE 11.5 mph - N/A   Overcast
6:56 AM 37.4 °F 29.3 °F 35.6 °F 93% 30.09 in 10.0 mi ESE 12.7 mph 19.6 mph N/A   Overcast
7:16 AM 37.4 °F 28.2 °F 33.8 °F 87% 30.08 in 9.0 mi SE 16.1 mph - N/A   Overcast
7:36 AM 39.2 °F 30.8 °F 33.8 °F 81% 30.07 in 10.0 mi ESE 15.0 mph - N/A   Overcast
7:56 AM 39.2 °F 31.2 °F 33.8 °F 81% 30.06 in 10.0 mi SE 13.8 mph - N/A   Overcast
8:16 AM 39.2 °F 31.6 °F 33.8 °F 81% 30.05 in 10.0 mi ESE 12.7 mph - N/A   Overcast
8:36 AM 37.4 °F 28.9 °F 33.8 °F 87% 30.04 in 10.0 mi SE 13.8 mph 20.7 mph N/A   Overcast
8:56 AM 37.4 °F 28.5 °F 33.8 °F 87% 30.04 in 10.0 mi ESE 15.0 mph - N/A   Overcast
9:16 AM 37.4 °F 27.8 °F 33.8 °F 87% 30.03 in 10.0 mi ESE 17.3 mph - N/A   Overcast
9:36 AM 37.4 °F 27.8 °F 32.0 °F 81% 30.02 in 10.0 mi ESE 17.3 mph 24.2 mph N/A   Overcast
9:56 AM 37.4 °F 27.8 °F 33.8 °F 87% 30.01 in 10.0 mi ESE 17.3 mph 23.0 mph N/A   Overcast
10:16 AM 37.4 °F 27.8 °F 32.0 °F 81% 30.00 in 10.0 mi ESE 17.3 mph - N/A   Overcast
10:36 AM 37.4 °F 28.2 °F 33.8 °F 87% 29.99 in 10.0 mi ESE 16.1 mph - N/A   Overcast
10:56 AM 37.4 °F 28.9 °F 32.0 °F 81% 29.98 in 10.0 mi ESE 13.8 mph - N/A   Overcast
11:16 AM 37.4 °F 27.5 °F 33.8 °F 87% 29.97 in 10.0 mi ESE 18.4 mph 25.3 mph N/A   Overcast
11:36 AM 37.4 °F 28.2 °F 32.0 °F 81% 29.96 in 7.0 mi ESE 16.1 mph - N/A   Overcast
11:56 AM 37.4 °F 28.2 °F 32.0 °F 81% 29.95 in 5.0 mi ESE 16.1 mph 21.9 mph N/A   Overcast
12:16 PM 37.4 °F 28.9 °F 32.0 °F 81% 29.94 in 6.0 mi ESE 13.8 mph - N/A   Overcast
12:36 PM 37.4 °F 28.9 °F 32.0 °F 81% 29.93 in 5.0 mi ESE 13.8 mph 21.9 mph N/A   Overcast
12:56 PM 37.4 °F 27.8 °F 32.0 °F 81% 29.93 in 5.0 mi ESE 17.3 mph - N/A   Overcast
1:16 PM 37.4 °F 28.2 °F 33.8 °F 87% 29.92 in 5.0 mi ESE 16.1 mph 21.9 mph N/A   Overcast
1:36 PM 37.4 °F 28.5 °F 32.0 °F 81% 29.91 in 5.0 mi ESE 15.0 mph - N/A   Overcast
1:56 PM 37.4 °F 28.5 °F 32.0 °F 81% 29.90 in 6.0 mi ESE 15.0 mph - N/A   Overcast
2:16 PM 37.4 °F 28.9 °F 33.8 °F 87% 29.89 in 6.0 mi SE 13.8 mph - N/A   Overcast
2:36 PM 37.4 °F 28.9 °F 33.8 °F 87% 29.88 in 4.0 mi SE 13.8 mph 21.9 mph N/A   Overcast
2:56 PM 35.6 °F 26.2 °F 32.0 °F 87% 29.88 in 4.0 mi ESE 15.0 mph - N/A   Overcast
3:16 PM 37.4 °F 28.9 °F 33.8 °F 87% 29.87 in 10.0 mi ESE 13.8 mph 18.4 mph N/A   Overcast
3:36 PM 37.4 °F 27.8 °F 33.8 °F 87% 29.87 in 10.0 mi SE 17.3 mph - N/A   Overcast
3:56 PM 37.4 °F 28.9 °F 33.8 °F 87% 29.86 in 6.0 mi SE 13.8 mph - N/A   Overcast
4:16 PM 37.4 °F 28.5 °F 33.8 °F 87% 29.85 in 8.0 mi ESE 15.0 mph 19.6 mph N/A   Overcast
4:36 PM 37.4 °F 26.9 °F 33.8 °F 87% 29.85 in 5.0 mi ESE 20.7 mph - N/A   Overcast
4:56 PM 37.4 °F 28.5 °F 33.8 °F 87% 29.84 in 7.0 mi East 15.0 mph 26.5 mph N/A   Overcast
5:16 PM 37.4 °F 28.5 °F 33.8 °F 87% 29.85 in 10.0 mi ESE 15.0 mph 20.7 mph N/A   Overcast
5:36 PM 37.4 °F 28.5 °F 33.8 °F 87% 29.85 in 10.0 mi East 15.0 mph 25.3 mph N/A   Overcast
5:56 PM 37.4 °F 27.8 °F 33.8 °F 87% 29.85 in 10.0 mi ESE 17.3 mph 23.0 mph N/A   Mostly Cloudy
6:16 PM 37.4 °F 28.2 °F 33.8 °F 87% 29.86 in 10.0 mi SE 16.1 mph - N/A   Overcast
6:36 PM 37.4 °F 26.6 °F 33.8 °F 87% 29.86 in 10.0 mi ESE 21.9 mph 27.6 mph N/A   Overcast
6:56 PM 37.4 °F 26.9 °F 33.8 °F 87% 29.86 in 9.0 mi East 20.7 mph - N/A   Overcast
7:16 PM 37.4 °F 27.2 °F 33.8 °F 87% 29.86 in 10.0 mi ESE 19.6 mph 25.3 mph N/A   Overcast
7:36 PM 37.4 °F 29.8 °F 33.8 °F 87% 29.86 in 10.0 mi ESE 11.5 mph - N/A   Overcast
7:56 PM 37.4 °F 29.3 °F 33.8 °F 87% 29.87 in 10.0 mi ESE 12.7 mph 17.3 mph N/A   Overcast
8:16 PM 37.4 °F 28.5 °F 33.8 °F 87% 29.87 in 10.0 mi ESE 15.0 mph 20.7 mph N/A   Overcast
8:36 PM 37.4 °F 30.8 °F 33.8 °F 87% 29.88 in 10.0 mi ESE 9.2 mph - N/A   Overcast
8:56 PM 37.4 °F 29.8 °F 33.8 °F 87% 29.88 in 10.0 mi East 11.5 mph - N/A   Overcast
9:16 PM 37.4 °F 28.2 °F 33.8 °F 87% 29.89 in 10.0 mi ESE 16.1 mph - N/A   Overcast
9:36 PM 37.4 °F 28.5 °F 33.8 °F 87% 29.90 in 10.0 mi East 15.0 mph - N/A   Overcast
9:56 PM 37.4 °F 28.5 °F 33.8 °F 87% 29.90 in 10.0 mi ESE 15.0 mph - N/A   Overcast
10:16 PM 37.4 °F 29.3 °F 33.8 °F 87% 29.90 in 10.0 mi East 12.7 mph 17.3 mph N/A   Overcast
10:36 PM 37.4 °F 30.3 °F 33.8 °F 87% 29.90 in 10.0 mi ESE 10.4 mph - N/A   Overcast
10:56 PM 37.4 °F 30.3 °F 33.8 °F 87% 29.91 in 10.0 mi ESE 10.4 mph - N/A   Overcast
11:16 PM 37.4 °F 29.8 °F 33.8 °F 87% 29.91 in 10.0 mi ESE 11.5 mph - N/A   Overcast
11:36 PM 37.4 °F 30.8 °F 35.6 °F 93% 29.92 in 10.0 mi ESE 9.2 mph - N/A   Overcast
11:56 PM 37.4 °F 30.3 °F 33.8 °F 87% 29.93 in 10.0 mi ESE 10.4 mph - N/A   Overcast